Location: Franzen
(48.6167°N, 15.3833°E)
Time: 13:33:08
(UTC+00:00)

Transit 2A Rocket - Pass Details

Date: 09 August 2021
Orbit: 586 x 917 km, 66.7° (Epoch: 27 September)

Event Time Altitude Azimuth Distance (km) Brightness Sun altitude
Rises 20:13:07 0° 320° (NW) 3,305 10.2 -15.4°
Reaches altitude 10° 20:15:34 10° 314° (NW) 2,420 9.0 -15.7°
Maximum altitude 20:20:52 44° 244° (WSW) 1,185 6.1 -16.3°
Enters shadow 20:25:03 17° 180° (S) 2,080 6.8 -16.7°
